National Weather Service Raw Text Product

Displaying AFOS PIL: RWRIA Received: 2018-07-12 15:00 UTC


579 
ASUS43 KDMX 121506
RWRIA 

WEATHER ROUNDUP FOR IOWA
NATIONAL WEATHER SERVICE DES MOINES IA
1000 AM CDT THU JUL 12 2018

NOTE: "FAIR" INDICATES FEW OR NO CLOUDS BELOW 12,000 FEET WITH NO
SIGNIFICANT WEATHER AND/OR OBSTRUCTIONS TO VISIBILITY.

* - THESE STATIONS ARE NOT NWS STATIONS...THUS NOT UNDER NWS
QUALITY CONTROL.  THEY ALSO DO NOT REPORT WEATHER SUCH 
AS PRECIPITATION OR FOG.  

IAZ001>003-012>014-020>022-031>034-043>046-121600-
   NORTHWEST IOWA
  
CITY           SKY/WX    TMP DP  RH WIND       PRES   REMARKS
CARROLL *      SUNNY     84  75  74 SW10      30.06S HX  92           
CHEROKEE *     SUNNY     84  74  72 SW10      30.03F HX  91           
DENISON *      SUNNY     84  73  70 S8        30.08R HX  91           
LE MARS *      SUNNY     84  75  74 S10       30.02S HX  92           
ORANGE CITY *  SUNNY     84  73  70 SW13      30.03S HX  91           
SHELDON *      MOSUNNY   84  73  70 SW10G17   30.01S HX  91           
SIOUX CITY     SUNNY     85  73  67 S12       30.02S HX  91           
STORM LAKE *   SUNNY     84  73  70 SW10      30.05F HX  91           
$$
 
IAZ055>058-069>071-079>083-090>094-121600-
   SOUTHWEST IOWA
  
CITY           SKY/WX    TMP DP  RH WIND       PRES   REMARKS
ATLANTIC *     SUNNY     86  73  66 S8G15     30.07S HX  93           
AUDUBON *      SUNNY     84  73  70 S9        30.08F HX  91           
CLARINDA *     SUNNY     84  73  70 VRB6      30.09S HX  91           
COUNCIL BLFS * SUNNY     86  73  66 S8        30.06S HX  93           
CRESTON *      SUNNY     82  70  65 S9        30.11S HX  86           
HARLAN  *        N/A     84  73  70 S9        30.07S HX  91           
LAMONI         SUNNY     83  69  62 S5        30.10S HX  86           
RED OAK *      SUNNY     86  73  66 S9        30.07S HX  93           
SHENANDOAH *   SUNNY     86  75  70 S9        30.07S HX  95           
$$
 
IAZ047>049-059>061-072>074-084-121600-
   CENTRAL IOWA
  
CITY           SKY/WX    TMP DP  RH WIND       PRES   REMARKS
AMES           CLOUDY    82  69  64 S8        30.08S HX  85           
ANKENY *       SUNNY     82  68  61 S9        30.09S HX  85           
BOONE *        CLOUDY    81  70  69 S7        30.07F HX  84           
CHARITON *     SUNNY     82  72  69 S10       30.10S HX  87           
DES MOINES     PTSUNNY   83  69  62 S8        30.08S HX  86           
GRINNELL*      CLOUDY    81  67  62 S10       30.12R HX  84           
KNOXVILLE *    SUNNY     81  70  69 S8        30.08F HX  84           
MARSHALLTOWN   CLOUDY    80  71  74 S10       30.09R HX  84           
NEWTON *       CLOUDY    81  70  69 S9        30.10S HX  84           
PELLA *        CLOUDY    82  67  59 S8        30.11S HX  85           
PERRY *        FAIR      83  74  73 MISG      30.07S HX  90           
$$
 
IAZ004>006-015-016-023>025-035-036-121600-
   NORTH CENTRAL IOWA
  
CITY           SKY/WX    TMP DP  RH WIND       PRES   REMARKS
ALGONA *       CLOUDY    82  72  69 SW14      30.04S HX  87           
CLARION *      CLOUDY    81  68  65 S13G18    30.07S HX  83           
ESTHERVILLE    SUNNY     85  73  67 SW14G21   30.01F HX  91           
FORT DODGE *   CLOUDY    83  72  69 S14       30.06F HX  88           
MASON CITY     CLOUDY    82  70  66 SW13      30.06F HX  86           
FOREST CITY *  FAIR      81  70  69 S12       30.06S HX  84           
WEBSTER CITY * CLOUDY    82  68  61 SW12      30.05S HX  85           
IOWA FALLS *   FAIR      81  68  65 S8        30.09S HX  84           
$$

IAZ007>011-017>019-026>030-037>042-050>054-066-121600-
   NORTHEAST IOWA
  
CITY           SKY/WX    TMP DP  RH WIND       PRES   REMARKS
CEDAR RAPIDS   FAIR      79  71  76 S13       30.11S HX  82           
CHARLES CITY * FAIR      79  66  65 S13       30.08S HX  81           
CLINTON *      FAIR      79  69  71 S9        30.15F HX  81           
DECORAH *      FAIR      77  68  73 VRB7G16   30.08S                  
DUBUQUE        CLOUDY    77  68  73 S13       30.14S                  
MONTICELLO *   FAIR      81  72  74 S12       30.12S HX  84           
OELWEIN *      PTSUNNY   79  70  73 S10       30.11S HX  81           
WATERLOO       PTSUNNY   79  69  71 S9        30.08F HX  81           
$$
 
IAZ064-065-067-068-078-121600-
   EAST CENTRAL IOWA
  
CITY           SKY/WX    TMP DP  RH WIND       PRES   REMARKS
DAVENPORT      FAIR      80  68  66 S10       30.16S HX  83           
IOWA CITY      FAIR      81  71  71 MISG      30.13S HX  85           
MUSCATINE *    FAIR      82  70  65 S8        30.13R HX  86           
QUAD CITIES    FAIR      81  69  67 S6        30.13F HX  84           
$$
 
IAZ062-063-075>077-085>089-095>099-121600-
   SOUTHEAST IOWA
  
CITY           SKY/WX    TMP DP  RH WIND       PRES   REMARKS
BURLINGTON     SUNNY     81  70  69 S9        30.13R HX  84           
FAIRFIELD *    MOSUNNY   82  70  65 S9        30.11S HX  86           
FORT MADISON * SUNNY     81  73  78 S7        30.13S HX  85           
KEOKUK *       SUNNY     82  72  69 S8G15     30.11F HX  87           
OSKALOOSA *    FAIR      80  69  68 S7        30.11S HX  82           
CENTERVILLE *    N/A     84  68  58 CALM      30.12F HX  87           
OTTUMWA        CLOUDY    82  68  62 S10       30.10F HX  85           
WASHINGTON *   CLOUDY    81  75  83 S8        30.13R HX  86           
$$

ABBREVIATIONS USED IN REMARKS
   TC - TEMPERATURES IN CELSIUS
  WCI - WIND CHILL INDEX
   HX - HEAT INDEX
  VSB - VISIBILITY  
$$

  

056 
ASUS43 KDMX 121501
RWRIA 

WEATHER ROUNDUP FOR IOWA
NATIONAL WEATHER SERVICE DES MOINES IA
1000 AM CDT THU JUL 12 2018

NOTE: "FAIR" INDICATES FEW OR NO CLOUDS BELOW 12,000 FEET WITH NO
SIGNIFICANT WEATHER AND/OR OBSTRUCTIONS TO VISIBILITY.

* - THESE STATIONS ARE NOT NWS STATIONS...THUS NOT UNDER NWS
QUALITY CONTROL.  THEY ALSO DO NOT REPORT WEATHER SUCH 
AS PRECIPITATION OR FOG.  

IAZ001>003-012>014-020>022-031>034-043>046-121600-
   NORTHWEST IOWA
  
CITY           SKY/WX    TMP DP  RH WIND       PRES   REMARKS
CARROLL *      SUNNY     84  75  74 SW10      30.06S HX  92           
CHEROKEE *     SUNNY     84  74  72 SW10      30.03F HX  91           
DENISON *      SUNNY     84  73  70 S8        30.08R HX  91           
LE MARS *      SUNNY     84  75  74 S10       30.02S HX  92           
ORANGE CITY *  SUNNY     84  73  70 SW13      30.03S HX  91           
SHELDON *      MOSUNNY   84  73  70 SW10G17   30.01S HX  91           
SIOUX CITY     SUNNY     85  73  67 S12       30.02S HX  91           
STORM LAKE *   SUNNY     84  73  70 SW10      30.05F HX  91           
$$
 
IAZ055>058-069>071-079>083-090>094-121600-
   SOUTHWEST IOWA
  
CITY           SKY/WX    TMP DP  RH WIND       PRES   REMARKS
ATLANTIC *     SUNNY     86  73  66 S8G15     30.07S HX  93           
AUDUBON *      SUNNY     84  73  70 S9        30.08F HX  91           
CLARINDA *     SUNNY     84  73  70 VRB6      30.09S HX  91           
COUNCIL BLFS * SUNNY     86  73  66 S8        30.06S HX  93           
CRESTON *      SUNNY     82  70  65 S9        30.11S HX  86           
HARLAN  *        N/A     84  73  70 S9        30.07S HX  91           
LAMONI         SUNNY     83  69  62 S5        30.10S HX  86           
RED OAK *      SUNNY     86  73  66 S9        30.07S HX  93           
SHENANDOAH *   SUNNY     86  75  70 S9        30.07S HX  95           
$$
 
IAZ047>049-059>061-072>074-084-121600-
   CENTRAL IOWA
  
CITY           SKY/WX    TMP DP  RH WIND       PRES   REMARKS
AMES           CLOUDY    82  69  64 S8        30.08S HX  85           
ANKENY *       SUNNY     82  68  61 S9        30.09S HX  85           
BOONE *        CLOUDY    81  70  69 S7        30.07F HX  84           
CHARITON *     SUNNY     82  72  69 S10       30.10S HX  87           
DES MOINES     PTSUNNY   83  69  62 S8        30.08S HX  86           
GRINNELL*      CLOUDY    81  67  62 S10       30.12R HX  84           
KNOXVILLE *    SUNNY     81  70  69 S8        30.08F HX  84           
MARSHALLTOWN   CLOUDY    80  71  74 S10       30.09R HX  84           
NEWTON *       CLOUDY    81  70  69 S9        30.10S HX  84           
PELLA *        CLOUDY    82  67  59 S8        30.11S HX  85           
PERRY *        FAIR      83  74  73 MISG      30.07S HX  90           
$$
 
IAZ004>006-015-016-023>025-035-036-121600-
   NORTH CENTRAL IOWA
  
CITY           SKY/WX    TMP DP  RH WIND       PRES   REMARKS
ALGONA *       CLOUDY    82  72  69 SW14      30.04S HX  87           
CLARION *      CLOUDY    81  68  65 S13G18    30.07S HX  83           
ESTHERVILLE    SUNNY     85  73  67 SW14G21   30.01F HX  91           
FORT DODGE *   CLOUDY    83  72  69 S14       30.06F HX  88           
MASON CITY     CLOUDY    82  70  66 SW13      30.06F HX  86           
FOREST CITY *  FAIR      81  70  69 S12       30.06S HX  84           
IOWA FALLS *   FAIR      81  68  65 S8        30.09S HX  84           
$$

IAZ007>011-017>019-026>030-037>042-050>054-066-121600-
   NORTHEAST IOWA
  
CITY           SKY/WX    TMP DP  RH WIND       PRES   REMARKS
CEDAR RAPIDS   FAIR      79  71  76 S13       30.11S HX  82           
CHARLES CITY * FAIR      79  66  65 S13       30.08S HX  81           
CLINTON *      FAIR      79  69  71 S9        30.15F HX  81           
DECORAH *      FAIR      77  68  73 VRB7G16   30.08S                  
DUBUQUE        CLOUDY    77  68  73 S13       30.14S                  
MONTICELLO *   FAIR      81  72  74 S12       30.12S HX  84           
OELWEIN *      PTSUNNY   79  70  73 S10       30.11S HX  81           
WATERLOO       PTSUNNY   79  69  71 S9        30.08F HX  81           
$$
 
IAZ064-065-067-068-078-121600-
   EAST CENTRAL IOWA
  
CITY           SKY/WX    TMP DP  RH WIND       PRES   REMARKS
DAVENPORT      FAIR      80  68  66 S10       30.16S HX  83           
IOWA CITY      FAIR      81  71  71 MISG      30.13S HX  85           
MUSCATINE *    FAIR      82  70  65 S8        30.13R HX  86           
QUAD CITIES    FAIR      81  69  67 S6        30.13F HX  84           
$$
 
IAZ062-063-075>077-085>089-095>099-121600-
   SOUTHEAST IOWA
  
CITY           SKY/WX    TMP DP  RH WIND       PRES   REMARKS
BURLINGTON     SUNNY     81  70  69 S9        30.13R HX  84           
FAIRFIELD *    MOSUNNY   82  70  65 S9        30.11S HX  86           
FORT MADISON * SUNNY     81  73  78 S7        30.13S HX  85           
KEOKUK *       SUNNY     82  72  69 S8G15     30.11F HX  87           
OSKALOOSA *    FAIR      80  69  68 S7        30.11S HX  82           
CENTERVILLE *    N/A     84  68  58 CALM      30.12F HX  87           
OTTUMWA        CLOUDY    82  68  62 S10       30.10F HX  85           
WASHINGTON *   CLOUDY    81  75  83 S8        30.13R HX  86           
$$

ABBREVIATIONS USED IN REMARKS
   TC - TEMPERATURES IN CELSIUS
  WCI - WIND CHILL INDEX
   HX - HEAT INDEX
  VSB - VISIBILITY  
$$